Regional Weather Roundup
Issued by NWS

Home | Current Version | Previous Version | Text Only | Print | Product List | Glossary Off
Versions: 1 2 3 4 5 6 7 8 9 10 11 12 13 14 15 16 17 18 19 20 21 22 23 24 25 26 27 28 29 30 31 32 33 34 35 36 37 38 39 40 41 42 43 44 45 46 47 48 49 50

000
ASUS43 KLSX 200857
RWRMO

WEATHER SUMMARY FOR MISSOURI
NATIONAL WEATHER SERVICE SPRINGFIELD MO
300 AM CST TUE FEB 20 2018

NOTE: "FAIR" INDICATES FEW OR NO CLOUDS BELOW 12,000 FEET WITH NO
       SIGNIFICANT WEATHER AND/OR OBSTRUCTIONS TO VISIBILITY.
       CURRENT SKY AND/OR WEATHER CONDITIONS ARE NOT AVAILABLE FOR
       CHILLICOTHE AND FARMINGTON.

MOZ001>031-035>038-043-044-053-054-201000-
...NORTHERN AND WESTERN MISSOURI...

CITY           SKY/WX    TMP DP  RH WIND       PRES   REMARKS
KANSAS CTY INT FRZ DRZL  30  29  96 N6        29.80F FOG     WCI  24
LEE`S SUMMIT   CLOUDY    32  32 100 N7        29.81F FOG     WCI  26
ST JOSEPH      CLOUDY    28  28 100 N10       29.83F WCI  19
CHILLICOTHE      N/A     33  32  96 VRB5      29.82R WCI  29

$$
MOZ066>068-077>081-088>096-101>105-201000-
...SOUTHWEST MISSOURI...

CITY           SKY/WX    TMP DP  RH WIND       PRES   REMARKS
SPRINGFIELD    LGT RAIN  65  58  78 S18G28    29.82S
JOPLIN         CLOUDY    66  59  78 S21G36    29.79R

$$
MOZ032>034-039>042-045>050-055>058-069>072-201000-
...CENTRAL MISSOURI...

CITY           SKY/WX    TMP DP  RH WIND       PRES   REMARKS
COLUMBIA       NOT AVBL
JEFFERSON CITY CLOUDY    66  58  75 S7        29.79S
ROLLA          CLOUDY    66  57  72 S24G33    29.84R
SEDALIA        CLOUDY    43  43 100 SE7       29.78F
WARRENSBURG    LGT RAIN  36  34  93 NW8       29.82R WCI  29

$$
MOZ051-052-059>065-201000-
...EAST CENTRAL MISSOURI...

CITY           SKY/WX    TMP DP  RH WIND       PRES   REMARKS
ST LOUIS INTL  MOCLDY    68  58  70 S14G25    29.84F

$$
MOZ072>076-082>087-097>100-106>115-201000-
...SOUTH CENTRAL AND SOUTHEAST MISSOURI...

CITY           SKY/WX    TMP DP  RH WIND       PRES   REMARKS
CAPE GIRARDEAU MOCLDY    67  59  75 S22G32    29.99S
POPLAR BLUFF   MOCLDY    66  59  78 S17G24    29.99S
WEST PLAINS    CLOUDY    68  55  63 S12G30    29.93S

$$



USA.gov is the U.S. government's official web portal to all federal, state and local government web resources and services.